owner,sensor,date,latitude,longitude,vertical_datum,sea_water_practical_salinity,qcFlag 
SCCF RECON,ioos:station:SCCF:51:1,2010-08-01T00:00:00Z,26.5545,-82.1715,1.765,31.6,1111122 
SCCF RECON,ioos:station:SCCF:51:1,2010-08-01T01:00:00Z,26.5545,-82.1715,1.711,30.73,1111122 
SCCF RECON,ioos:station:SCCF:51:1,2010-08-01T02:00:00Z,26.5545,-82.1715,1.668,30.24,1111122 
SCCF RECON,ioos:station:SCCF:51:1,2010-08-01T03:00:00Z,26.5545,-82.1715,1.65,30.52,1111122 
SCCF RECON,ioos:station:SCCF:51:1,2010-08-01T04:00:00Z,26.5545,-82.1715,1.66,31.44,1111122 
SCCF RECON,ioos:station:SCCF:51:1,2010-08-01T05:00:00Z,26.5545,-82.1715,1.71,31.97,1111122 
SCCF RECON,ioos:station:SCCF:51:1,2010-08-01T06:00:00Z,26.5545,-82.1715,1.77,32.08,1111122 
SCCF RECON,ioos:station:SCCF:51:1,2010-08-01T07:00:00Z,26.5545,-82.1715,1.883,33.12,1111122 
SCCF RECON,ioos:station:SCCF:51:1,2010-08-01T08:00:00Z,26.5545,-82.1715,1.979,33.38,1111122 
SCCF RECON,ioos:station:SCCF:51:1,2010-08-01T09:00:00Z,26.5545,-82.1715,2.001,33.4,1111122 
SCCF RECON,ioos:station:SCCF:51:1,2010-08-01T10:00:00Z,26.5545,-82.1715,1.982,33.18,1111122 
SCCF RECON,ioos:station:SCCF:51:1,2010-08-01T11:00:00Z,26.5545,-82.1715,1.94,32.56,1111122 
SCCF RECON,ioos:station:SCCF:51:1,2010-08-01T12:00:00Z,26.5545,-82.1715,1.86,31.71,1111122 
SCCF RECON,ioos:station:SCCF:51:1,2010-08-01T13:00:00Z,26.5545,-82.1715,1.788,31.49,1111122 
SCCF RECON,ioos:station:SCCF:51:1,2010-08-01T14:00:00Z,26.5545,-82.1715,1.714,31.92,1111122 
SCCF RECON,ioos:station:SCCF:51:1,2010-08-01T15:00:00Z,26.5545,-82.1715,1.65,31.58,1111122 
SCCF RECON,ioos:station:SCCF:51:1,2010-08-01T16:00:00Z,26.5545,-82.1715,1.609,31.3,1111122 
SCCF RECON,ioos:station:SCCF:51:1,2010-08-01T17:00:00Z,26.5545,-82.1715,1.61,31.85,1111122 
SCCF RECON,ioos:station:SCCF:51:1,2010-08-01T18:00:00Z,26.5545,-82.1715,1.655,31.64,1111122 
SCCF RECON,ioos:station:SCCF:51:1,2010-08-01T19:00:00Z,26.5545,-82.1715,1.719,31.45,1111122 
SCCF RECON,ioos:station:SCCF:51:1,2010-08-01T20:00:00Z,26.5545,-82.1715,1.799,32.69,1111122 
SCCF RECON,ioos:station:SCCF:51:1,2010-08-01T21:00:00Z,26.5545,-82.1715,1.866,33.19,1111122 
SCCF RECON,ioos:station:SCCF:51:1,2010-08-01T22:00:00Z,26.5545,-82.1715,1.883,32.81,1111122 
SCCF RECON,ioos:station:SCCF:51:1,2010-08-01T23:00:00Z,26.5545,-82.1715,1.86,32.2,1111122 
SCCF RECON,ioos:station:SCCF:51:1,2010-08-02T00:00:00Z,26.5545,-82.1715,1.83,32.0,1111122 
SCCF RECON,ioos:station:SCCF:51:1,2010-08-02T01:00:00Z,26.5545,-82.1715,1.801,31.17,1111122 
SCCF RECON,ioos:station:SCCF:51:1,2010-08-02T02:00:00Z,26.5545,-82.1715,1.78,30.61,1111122 
SCCF RECON,ioos:station:SCCF:51:1,2010-08-02T03:00:00Z,26.5545,-82.1715,1.776,30.43,1111122 
SCCF RECON,ioos:station:SCCF:51:1,2010-08-02T04:00:00Z,26.5545,-82.1715,1.749,30.14,1111122 
SCCF RECON,ioos:station:SCCF:51:1,2010-08-02T05:00:00Z,26.5545,-82.1715,1.77,30.52,1111122 
SCCF RECON,ioos:station:SCCF:51:1,2010-08-02T06:00:00Z,26.5545,-82.1715,1.83,30.47,1111122 
SCCF RECON,ioos:station:SCCF:51:1,2010-08-02T07:00:00Z,26.5545,-82.1715,1.917,32.67,1111122 
SCCF RECON,ioos:station:SCCF:51:1,2010-08-02T08:00:00Z,26.5545,-82.1715,2.0,33.0,1111122 
SCCF RECON,ioos:station:SCCF:51:1,2010-08-02T09:00:00Z,26.5545,-82.1715,2.1,33.2,1111122 
SCCF RECON,ioos:station:SCCF:51:1,2010-08-02T10:00:00Z,26.5545,-82.1715,2.12,33.14,1111122 
SCCF RECON,ioos:station:SCCF:51:1,2010-08-02T11:00:00Z,26.5545,-82.1715,2.088,33.37,1111122 
SCCF RECON,ioos:station:SCCF:51:1,2010-08-02T12:00:00Z,26.5545,-82.1715,2.03,32.99,1111122 
SCCF RECON,ioos:station:SCCF:51:1,2010-08-02T13:00:00Z,26.5545,-82.1715,1.948,32.1,1111122 
SCCF RECON,ioos:station:SCCF:51:1,2010-08-02T14:00:00Z,26.5545,-82.1715,1.845,33.07,1111122 
SCCF RECON,ioos:station:SCCF:51:1,2010-08-02T15:00:00Z,26.5545,-82.1715,1.747,32.13,1111122 
SCCF RECON,ioos:station:SCCF:51:1,2010-08-02T16:00:00Z,26.5545,-82.1715,1.67,32.02,1111122 
SCCF RECON,ioos:station:SCCF:51:1,2010-08-02T17:00:00Z,26.5545,-82.1715,1.62,31.66,1111122 
SCCF RECON,ioos:station:SCCF:51:1,2010-08-02T18:00:00Z,26.5545,-82.1715,1.63,31.15,1111122 
SCCF RECON,ioos:station:SCCF:51:1,2010-08-02T19:00:00Z,26.5545,-82.1715,1.669,31.22,1111122 
SCCF RECON,ioos:station:SCCF:51:1,2010-08-02T20:00:00Z,26.5545,-82.1715,1.722,30.93,1111122 
SCCF RECON,ioos:station:SCCF:51:1,2010-08-02T21:00:00Z,26.5545,-82.1715,1.787,32.22,1111122 
SCCF RECON,ioos:station:SCCF:51:1,2010-08-02T22:00:00Z,26.5545,-82.1715,1.83,32.95,1111122 
SCCF RECON,ioos:station:SCCF:51:1,2010-08-02T23:00:00Z,26.5545,-82.1715,1.859,32.26,1111122 
SCCF RECON,ioos:station:SCCF:51:1,2010-08-03T00:00:00Z,26.5545,-82.1715,1.855,32.42,1111122 
SCCF RECON,ioos:station:SCCF:51:1,2010-08-03T01:00:00Z,26.5545,-82.1715,1.82,31.57,1111122 
SCCF RECON,ioos:station:SCCF:51:1,2010-08-03T02:00:00Z,26.5545,-82.1715,1.824,31.67,1111122 
SCCF RECON,ioos:station:SCCF:51:1,2010-08-03T03:00:00Z,26.5545,-82.1715,1.83,31.42,1111122 
SCCF RECON,ioos:station:SCCF:51:1,2010-08-03T04:00:00Z,26.5545,-82.1715,1.83,30.78,1111122 
SCCF RECON,ioos:station:SCCF:51:1,2010-08-03T05:00:00Z,26.5545,-82.1715,1.83,30.75,1111122 
SCCF RECON,ioos:station:SCCF:51:1,2010-08-03T06:00:00Z,26.5545,-82.1715,1.83,30.34,1111122 
SCCF RECON,ioos:station:SCCF:51:1,2010-08-03T07:00:00Z,26.5545,-82.1715,1.89,30.49,1111122 
SCCF RECON,ioos:station:SCCF:51:1,2010-08-03T08:00:00Z,26.5545,-82.1715,1.95,32.27,1111122 
SCCF RECON,ioos:station:SCCF:51:1,2010-08-03T09:00:00Z,26.5545,-82.1715,2.04,33.02,1111122 
SCCF RECON,ioos:station:SCCF:51:1,2010-08-03T10:00:00Z,26.5545,-82.1715,2.095,33.33,1111122 
SCCF RECON,ioos:station:SCCF:51:1,2010-08-03T11:00:00Z,26.5545,-82.1715,2.1,33.49,1111122 
SCCF RECON,ioos:station:SCCF:51:1,2010-08-03T12:00:00Z,26.5545,-82.1715,2.048,33.36,1111122 
SCCF RECON,ioos:station:SCCF:51:1,2010-08-03T13:00:00Z,26.5545,-82.1715,1.98,33.38,1111122 
SCCF RECON,ioos:station:SCCF:51:1,2010-08-03T14:00:00Z,26.5545,-82.1715,1.9,31.96,1111122 
SCCF RECON,ioos:station:SCCF:51:1,2010-08-03T15:00:00Z,26.5545,-82.1715,1.81,32.56,1111122 
SCCF RECON,ioos:station:SCCF:51:1,2010-08-03T16:00:00Z,26.5545,-82.1715,1.725,32.33,1111122 
SCCF RECON,ioos:station:SCCF:51:1,2010-08-03T17:00:00Z,26.5545,-82.1715,1.641,32.23,1111122 
SCCF RECON,ioos:station:SCCF:51:1,2010-08-03T18:00:00Z,26.5545,-82.1715,1.587,31.63,1111122 
SCCF RECON,ioos:station:SCCF:51:1,2010-08-03T19:00:00Z,26.5545,-82.1715,1.577,31.6,1111122 
SCCF RECON,ioos:station:SCCF:51:1,2010-08-03T20:00:00Z,26.5545,-82.1715,1.617,31.36,1111122 
SCCF RECON,ioos:station:SCCF:51:1,2010-08-03T21:00:00Z,26.5545,-82.1715,1.673,31.22,1111122 
SCCF RECON,ioos:station:SCCF:51:1,2010-08-03T22:00:00Z,26.5545,-82.1715,1.738,32.3,1111122 
SCCF RECON,ioos:station:SCCF:51:1,2010-08-03T23:00:00Z,26.5545,-82.1715,1.804,33.11,1111122 
SCCF RECON,ioos:station:SCCF:51:1,2010-08-04T00:00:00Z,26.5545,-82.1715,1.861,32.49,1111122 
SCCF RECON,ioos:station:SCCF:51:1,2010-08-04T01:00:00Z,26.5545,-82.1715,1.87,32.4,1111122 
SCCF RECON,ioos:station:SCCF:51:1,2010-08-04T02:00:00Z,26.5545,-82.1715,1.85,32.23,1111122 
SCCF RECON,ioos:station:SCCF:51:1,2010-08-04T03:00:00Z,26.5545,-82.1715,1.831,32.41,1111122 
SCCF RECON,ioos:station:SCCF:51:1,2010-08-04T04:00:00Z,26.5545,-82.1715,1.836,31.23,1111122 
SCCF RECON,ioos:station:SCCF:51:1,2010-08-04T05:00:00Z,26.5545,-82.1715,1.863,30.58,1111122 
SCCF RECON,ioos:station:SCCF:51:1,2010-08-04T06:00:00Z,26.5545,-82.1715,1.91,30.24,1111122 
SCCF RECON,ioos:station:SCCF:51:1,2010-08-04T07:00:00Z,26.5545,-82.1715,1.95,30.73,1111122 
SCCF RECON,ioos:station:SCCF:51:1,2010-08-04T08:00:00Z,26.5545,-82.1715,1.993,31.84,1111122 
SCCF RECON,ioos:station:SCCF:51:1,2010-08-04T09:00:00Z,26.5545,-82.1715,2.049,32.7,1111122 
SCCF RECON,ioos:station:SCCF:51:1,2010-08-04T10:00:00Z,26.5545,-82.1715,2.069,33.37,1111122 
SCCF RECON,ioos:station:SCCF:51:1,2010-08-04T11:00:00Z,26.5545,-82.1715,2.093,32.76,1111122 
SCCF RECON,ioos:station:SCCF:51:1,2010-08-04T12:00:00Z,26.5545,-82.1715,2.104,32.45,1111122 
SCCF RECON,ioos:station:SCCF:51:1,2010-08-04T13:00:00Z,26.5545,-82.1715,2.07,32.08,1111122 
SCCF RECON,ioos:station:SCCF:51:1,2010-08-04T14:00:00Z,26.5545,-82.1715,2.021,30.99,1111122 
SCCF RECON,ioos:station:SCCF:51:1,2010-08-04T15:00:00Z,26.5545,-82.1715,1.947,30.77,1111122 
SCCF RECON,ioos:station:SCCF:51:1,2010-08-04T16:00:00Z,26.5545,-82.1715,1.857,31.07,1111122 
SCCF RECON,ioos:station:SCCF:51:1,2010-08-04T17:00:00Z,26.5545,-82.1715,1.744,31.42,1111122 
SCCF RECON,ioos:station:SCCF:51:1,2010-08-04T18:00:00Z,26.5545,-82.1715,1.64,30.57,1111122 
SCCF RECON,ioos:station:SCCF:51:1,2010-08-04T19:00:00Z,26.5545,-82.1715,1.541,29.96,1111122 
SCCF RECON,ioos:station:SCCF:51:1,2010-08-04T20:00:00Z,26.5545,-82.1715,1.516,30.26,1111122 
SCCF RECON,ioos:station:SCCF:51:1,2010-08-04T21:00:00Z,26.5545,-82.1715,1.56,30.94,1111122 
SCCF RECON,ioos:station:SCCF:51:1,2010-08-04T22:00:00Z,26.5545,-82.1715,1.644,31.35,1111122 
SCCF RECON,ioos:station:SCCF:51:1,2010-08-04T23:00:00Z,26.5545,-82.1715,1.732,32.13,1111122 
SCCF RECON,ioos:station:SCCF:51:1,2010-08-05T00:00:00Z,26.5545,-82.1715,1.84,33.09,1111122 
SCCF RECON,ioos:station:SCCF:51:1,2010-08-05T01:00:00Z,26.5545,-82.1715,1.87,32.88,1111122 
SCCF RECON,ioos:station:SCCF:51:1,2010-08-05T02:00:00Z,26.5545,-82.1715,1.92,33.35,1111122 
SCCF RECON,ioos:station:SCCF:51:1,2010-08-05T03:00:00Z,26.5545,-82.1715,1.949,33.4,1111122 
SCCF RECON,ioos:station:SCCF:51:1,2010-08-05T04:00:00Z,26.5545,-82.1715,1.956,33.35,1111122 
SCCF RECON,ioos:station:SCCF:51:1,2010-08-05T05:00:00Z,26.5545,-82.1715,1.95,32.32,1111122 
SCCF RECON,ioos:station:SCCF:51:1,2010-08-05T06:00:00Z,26.5545,-82.1715,1.93,31.84,1111122 
SCCF RECON,ioos:station:SCCF:51:1,2010-08-05T07:00:00Z,26.5545,-82.1715,1.937,31.58,1111122 
SCCF RECON,ioos:station:SCCF:51:1,2010-08-05T08:00:00Z,26.5545,-82.1715,1.979,31.26,1111122 
SCCF RECON,ioos:station:SCCF:51:1,2010-08-05T09:00:00Z,26.5545,-82.1715,2.047,33.07,1111122 
SCCF RECON,ioos:station:SCCF:51:1,2010-08-05T10:00:00Z,26.5545,-82.1715,2.12,33.11,1111122 
SCCF RECON,ioos:station:SCCF:51:1,2010-08-05T11:00:00Z,26.5545,-82.1715,2.182,33.87,1111122 
SCCF RECON,ioos:station:SCCF:51:1,2010-08-05T12:00:00Z,26.5545,-82.1715,2.19,33.86,1111122 
SCCF RECON,ioos:station:SCCF:51:1,2010-08-05T13:00:00Z,26.5545,-82.1715,2.189,33.92,1111122 
SCCF RECON,ioos:station:SCCF:51:1,2010-08-05T14:00:00Z,26.5545,-82.1715,2.158,33.9,1111122 
SCCF RECON,ioos:station:SCCF:51:1,2010-08-05T15:00:00Z,26.5545,-82.1715,2.092,31.03,1111122 
SCCF RECON,ioos:station:SCCF:51:1,2010-08-05T16:00:00Z,26.5545,-82.1715,1.994,31.44,1111122 
SCCF RECON,ioos:station:SCCF:51:1,2010-08-05T17:00:00Z,26.5545,-82.1715,1.88,32.13,1111122 
SCCF RECON,ioos:station:SCCF:51:1,2010-08-05T18:00:00Z,26.5545,-82.1715,1.767,30.58,1111122 
SCCF RECON,ioos:station:SCCF:51:1,2010-08-05T19:00:00Z,26.5545,-82.1715,1.644,30.44,1111122 
SCCF RECON,ioos:station:SCCF:51:1,2010-08-05T20:00:00Z,26.5545,-82.1715,1.544,30.12,1111122 
SCCF RECON,ioos:station:SCCF:51:1,2010-08-05T21:00:00Z,26.5545,-82.1715,1.501,29.83,1111122 
SCCF RECON,ioos:station:SCCF:51:1,2010-08-05T22:00:00Z,26.5545,-82.1715,1.518,29.8,1111122 
SCCF RECON,ioos:station:SCCF:51:1,2010-08-05T23:00:00Z,26.5545,-82.1715,1.6,29.73,1111122 
SCCF RECON,ioos:station:SCCF:51:1,2010-08-06T00:00:00Z,26.5545,-82.1715,1.71,31.7,1111122 
SCCF RECON,ioos:station:SCCF:51:1,2010-08-06T01:00:00Z,26.5545,-82.1715,1.819,33.56,1111122 
SCCF RECON,ioos:station:SCCF:51:1,2010-08-06T02:00:00Z,26.5545,-82.1715,1.909,33.85,1111122 
SCCF RECON,ioos:station:SCCF:51:1,2010-08-06T03:00:00Z,26.5545,-82.1715,1.96,33.31,1111122 
SCCF RECON,ioos:station:SCCF:51:1,2010-08-06T04:00:00Z,26.5545,-82.1715,1.97,33.66,1111122 
SCCF RECON,ioos:station:SCCF:51:1,2010-08-06T05:00:00Z,26.5545,-82.1715,1.97,33.69,1111122 
SCCF RECON,ioos:station:SCCF:51:1,2010-08-06T06:00:00Z,26.5545,-82.1715,1.94,33.54,1111122 
SCCF RECON,ioos:station:SCCF:51:1,2010-08-06T07:00:00Z,26.5545,-82.1715,1.93,33.09,1111122 
SCCF RECON,ioos:station:SCCF:51:1,2010-08-06T08:00:00Z,26.5545,-82.1715,1.929,31.5,1111122 
SCCF RECON,ioos:station:SCCF:51:1,2010-08-06T09:00:00Z,26.5545,-82.1715,1.96,30.68,1111122 
SCCF RECON,ioos:station:SCCF:51:1,2010-08-06T10:00:00Z,26.5545,-82.1715,2.014,29.67,1111122 
SCCF RECON,ioos:station:SCCF:51:1,2010-08-06T11:00:00Z,26.5545,-82.1715,2.101,32.75,1111122 
SCCF RECON,ioos:station:SCCF:51:1,2010-08-06T12:00:00Z,26.5545,-82.1715,2.166,33.2,1111122 
SCCF RECON,ioos:station:SCCF:51:1,2010-08-06T13:00:00Z,26.5545,-82.1715,2.208,33.53,1111122 
SCCF RECON,ioos:station:SCCF:51:1,2010-08-06T14:00:00Z,26.5545,-82.1715,2.211,33.91,1111122 
SCCF RECON,ioos:station:SCCF:51:1,2010-08-06T15:00:00Z,26.5545,-82.1715,2.167,33.82,1111122 
SCCF RECON,ioos:station:SCCF:51:1,2010-08-06T16:00:00Z,26.5545,-82.1715,2.097,33.01,1111122 
SCCF RECON,ioos:station:SCCF:51:1,2010-08-06T17:00:00Z,26.5545,-82.1715,1.992,32.09,1111122 
SCCF RECON,ioos:station:SCCF:51:1,2010-08-06T18:00:00Z,26.5545,-82.1715,1.864,31.06,1111122 
SCCF RECON,ioos:station:SCCF:51:1,2010-08-06T19:00:00Z,26.5545,-82.1715,1.734,30.24,1111122 
SCCF RECON,ioos:station:SCCF:51:1,2010-08-06T20:00:00Z,26.5545,-82.1715,1.613,29.79,1111122 
SCCF RECON,ioos:station:SCCF:51:1,2010-08-06T21:00:00Z,26.5545,-82.1715,1.509,29.36,1111122 
SCCF RECON,ioos:station:SCCF:51:1,2010-08-06T22:00:00Z,26.5545,-82.1715,1.441,29.13,1111122 
SCCF RECON,ioos:station:SCCF:51:1,2010-08-06T23:00:00Z,26.5545,-82.1715,1.463,29.03,1111122 
SCCF RECON,ioos:station:SCCF:51:1,2010-08-07T00:00:00Z,26.5545,-82.1715,1.557,29.19,1111122 
SCCF RECON,ioos:station:SCCF:51:1,2010-08-07T01:00:00Z,26.5545,-82.1715,1.67,31.82,1111122 
SCCF RECON,ioos:station:SCCF:51:1,2010-08-07T02:00:00Z,26.5545,-82.1715,1.79,33.24,1111122 
SCCF RECON,ioos:station:SCCF:51:1,2010-08-07T03:00:00Z,26.5545,-82.1715,1.91,33.45,1111122 
SCCF RECON,ioos:station:SCCF:51:1,2010-08-07T04:00:00Z,26.5545,-82.1715,1.97,33.28,1111122 
SCCF RECON,ioos:station:SCCF:51:1,2010-08-07T05:00:00Z,26.5545,-82.1715,1.98,33.34,1111122 
SCCF RECON,ioos:station:SCCF:51:1,2010-08-07T06:00:00Z,26.5545,-82.1715,1.96,33.21,1111122 
SCCF RECON,ioos:station:SCCF:51:1,2010-08-07T07:00:00Z,26.5545,-82.1715,1.92,33.14,1111122 
SCCF RECON,ioos:station:SCCF:51:1,2010-08-07T08:00:00Z,26.5545,-82.1715,1.893,32.71,1111122 
SCCF RECON,ioos:station:SCCF:51:1,2010-08-07T09:00:00Z,26.5545,-82.1715,1.92,32.33,1111122 
SCCF RECON,ioos:station:SCCF:51:1,2010-08-07T10:00:00Z,26.5545,-82.1715,1.97,31.81,1111122 
SCCF RECON,ioos:station:SCCF:51:1,2010-08-07T11:00:00Z,26.5545,-82.1715,2.05,33.09,1111122 
SCCF RECON,ioos:station:SCCF:51:1,2010-08-07T12:00:00Z,26.5545,-82.1715,2.13,33.36,1111122 
SCCF RECON,ioos:station:SCCF:51:1,2010-08-07T13:00:00Z,26.5545,-82.1715,2.2,33.73,1111122 
SCCF RECON,ioos:station:SCCF:51:1,2010-08-07T14:00:00Z,26.5545,-82.1715,2.251,33.81,1111122 
SCCF RECON,ioos:station:SCCF:51:1,2010-08-07T15:00:00Z,26.5545,-82.1715,2.28,33.79,1111122 
SCCF RECON,ioos:station:SCCF:51:1,2010-08-07T16:00:00Z,26.5545,-82.1715,2.24,33.74,1111122 
SCCF RECON,ioos:station:SCCF:51:1,2010-08-07T17:00:00Z,26.5545,-82.1715,2.151,33.31,1111122 
SCCF RECON,ioos:station:SCCF:51:1,2010-08-07T18:00:00Z,26.5545,-82.1715,2.033,33.17,1111122 
SCCF RECON,ioos:station:SCCF:51:1,2010-08-07T19:00:00Z,26.5545,-82.1715,1.881,30.86,1111122 
SCCF RECON,ioos:station:SCCF:51:1,2010-08-07T20:00:00Z,26.5545,-82.1715,1.732,31.2,1111122 
SCCF RECON,ioos:station:SCCF:51:1,2010-08-07T21:00:00Z,26.5545,-82.1715,1.598,30.1,1111122 
SCCF RECON,ioos:station:SCCF:51:1,2010-08-07T22:00:00Z,26.5545,-82.1715,1.49,29.27,1111122 
SCCF RECON,ioos:station:SCCF:51:1,2010-08-07T23:00:00Z,26.5545,-82.1715,1.435,29.23,1111122 
SCCF RECON,ioos:station:SCCF:51:1,2010-08-08T00:00:00Z,26.5545,-82.1715,1.481,29.33,1111122 
SCCF RECON,ioos:station:SCCF:51:1,2010-08-08T01:00:00Z,26.5545,-82.1715,1.589,30.98,1111122 
SCCF RECON,ioos:station:SCCF:51:1,2010-08-08T02:00:00Z,26.5545,-82.1715,1.72,32.72,1111122 
SCCF RECON,ioos:station:SCCF:51:1,2010-08-08T03:00:00Z,26.5545,-82.1715,1.85,33.08,1111122 
SCCF RECON,ioos:station:SCCF:51:1,2010-08-08T04:00:00Z,26.5545,-82.1715,1.961,32.99,1111122 
SCCF RECON,ioos:station:SCCF:51:1,2010-08-08T05:00:00Z,26.5545,-82.1715,2.026,33.01,1111122 
SCCF RECON,ioos:station:SCCF:51:1,2010-08-08T06:00:00Z,26.5545,-82.1715,1.99,33.06,1111122 
SCCF RECON,ioos:station:SCCF:51:1,2010-08-08T07:00:00Z,26.5545,-82.1715,1.934,32.68,1111122 
SCCF RECON,ioos:station:SCCF:51:1,2010-08-08T08:00:00Z,26.5545,-82.1715,1.87,31.94,1111122 
SCCF RECON,ioos:station:SCCF:51:1,2010-08-08T09:00:00Z,26.5545,-82.1715,1.85,32.52,1111122 
SCCF RECON,ioos:station:SCCF:51:1,2010-08-08T10:00:00Z,26.5545,-82.1715,1.867,32.5,1111122 
SCCF RECON,ioos:station:SCCF:51:1,2010-08-08T11:00:00Z,26.5545,-82.1715,1.93,32.72,1111122 
SCCF RECON,ioos:station:SCCF:51:1,2010-08-08T12:00:00Z,26.5545,-82.1715,2.022,32.88,1111122 
SCCF RECON,ioos:station:SCCF:51:1,2010-08-08T13:00:00Z,26.5545,-82.1715,2.12,33.39,1111122 
SCCF RECON,ioos:station:SCCF:51:1,2010-08-08T14:00:00Z,26.5545,-82.1715,2.21,33.5,1111122 
SCCF RECON,ioos:station:SCCF:51:1,2010-08-08T15:00:00Z,26.5545,-82.1715,2.275,33.44,1111122 
SCCF RECON,ioos:station:SCCF:51:1,2010-08-08T16:00:00Z,26.5545,-82.1715,2.288,33.28,1111122 
SCCF RECON,ioos:station:SCCF:51:1,2010-08-08T17:00:00Z,26.5545,-82.1715,2.241,33.4,1111122 
SCCF RECON,ioos:station:SCCF:51:1,2010-08-08T18:00:00Z,26.5545,-82.1715,2.137,33.1,1111122 
SCCF RECON,ioos:station:SCCF:51:1,2010-08-08T19:00:00Z,26.5545,-82.1715,2.017,32.84,1111122 
SCCF RECON,ioos:station:SCCF:51:1,2010-08-08T20:00:00Z,26.5545,-82.1715,1.872,31.79,1111122 
SCCF RECON,ioos:station:SCCF:51:1,2010-08-08T21:00:00Z,26.5545,-82.1715,1.72,30.37,1111122 
SCCF RECON,ioos:station:SCCF:51:1,2010-08-08T22:00:00Z,26.5545,-82.1715,1.585,31.26,1111122 
SCCF RECON,ioos:station:SCCF:51:1,2010-08-08T23:00:00Z,26.5545,-82.1715,1.472,29.3,1111122 
SCCF RECON,ioos:station:SCCF:51:1,2010-08-09T00:00:00Z,26.5545,-82.1715,1.409,29.65,1111122 
SCCF RECON,ioos:station:SCCF:51:1,2010-08-09T01:00:00Z,26.5545,-82.1715,1.46,31.12,1111122 
SCCF RECON,ioos:station:SCCF:51:1,2010-08-09T02:00:00Z,26.5545,-82.1715,1.568,31.35,1111122 
SCCF RECON,ioos:station:SCCF:51:1,2010-08-09T03:00:00Z,26.5545,-82.1715,1.71,32.58,1111122 
SCCF RECON,ioos:station:SCCF:51:1,2010-08-09T04:00:00Z,26.5545,-82.1715,1.862,32.85,1111122 
SCCF RECON,ioos:station:SCCF:51:1,2010-08-09T05:00:00Z,26.5545,-82.1715,1.975,32.84,1111122 
SCCF RECON,ioos:station:SCCF:51:1,2010-08-09T06:00:00Z,26.5545,-82.1715,2.025,32.92,1111122 
SCCF RECON,ioos:station:SCCF:51:1,2010-08-09T07:00:00Z,26.5545,-82.1715,1.98,32.44,1111122 
SCCF RECON,ioos:station:SCCF:51:1,2010-08-09T08:00:00Z,26.5545,-82.1715,1.9,32.3,1111122 
SCCF RECON,ioos:station:SCCF:51:1,2010-08-09T09:00:00Z,26.5545,-82.1715,1.833,32.22,1111122 
SCCF RECON,ioos:station:SCCF:51:1,2010-08-09T10:00:00Z,26.5545,-82.1715,1.81,31.96,1111122 
SCCF RECON,ioos:station:SCCF:51:1,2010-08-09T11:00:00Z,26.5545,-82.1715,1.82,31.59,1111122 
SCCF RECON,ioos:station:SCCF:51:1,2010-08-09T12:00:00Z,26.5545,-82.1715,1.877,30.76,1111122 
SCCF RECON,ioos:station:SCCF:51:1,2010-08-09T13:00:00Z,26.5545,-82.1715,1.981,31.95,1111122 
SCCF RECON,ioos:station:SCCF:51:1,2010-08-09T14:00:00Z,26.5545,-82.1715,2.107,32.79,1111122 
SCCF RECON,ioos:station:SCCF:51:1,2010-08-09T15:00:00Z,26.5545,-82.1715,2.212,33.11,1111122 
SCCF RECON,ioos:station:SCCF:51:1,2010-08-09T16:00:00Z,26.5545,-82.1715,2.283,33.01,1111122 
SCCF RECON,ioos:station:SCCF:51:1,2010-08-09T17:00:00Z,26.5545,-82.1715,2.301,33.41,1111122 
SCCF RECON,ioos:station:SCCF:51:1,2010-08-09T18:00:00Z,26.5545,-82.1715,2.261,33.71,1111122 
SCCF RECON,ioos:station:SCCF:51:1,2010-08-09T19:00:00Z,26.5545,-82.1715,2.162,33.65,1111122 
SCCF RECON,ioos:station:SCCF:51:1,2010-08-09T20:00:00Z,26.5545,-82.1715,2.032,32.72,1111122 
SCCF RECON,ioos:station:SCCF:51:1,2010-08-09T21:00:00Z,26.5545,-82.1715,1.88,31.52,1111122 
SCCF RECON,ioos:station:SCCF:51:1,2010-08-09T22:00:00Z,26.5545,-82.1715,1.726,30.81,1111122 
SCCF RECON,ioos:station:SCCF:51:1,2010-08-09T23:00:00Z,26.5545,-82.1715,1.599,29.71,1111122 
SCCF RECON,ioos:station:SCCF:51:1,2010-08-10T00:00:00Z,26.5545,-82.1715,1.49,29.42,1111122 
SCCF RECON,ioos:station:SCCF:51:1,2010-08-10T01:00:00Z,26.5545,-82.1715,1.451,29.25,1111122 
SCCF RECON,ioos:station:SCCF:51:1,2010-08-10T02:00:00Z,26.5545,-82.1715,1.543,28.76,1111122 
SCCF RECON,ioos:station:SCCF:51:1,2010-08-10T03:00:00Z,26.5545,-82.1715,1.682,29.68,1111122 
SCCF RECON,ioos:station:SCCF:51:1,2010-08-10T04:00:00Z,26.5545,-82.1715,1.84,32.81,1111122 
SCCF RECON,ioos:station:SCCF:51:1,2010-08-10T05:00:00Z,26.5545,-82.1715,1.973,32.62,1111122 
SCCF RECON,ioos:station:SCCF:51:1,2010-08-10T06:00:00Z,26.5545,-82.1715,2.021,32.91,1111122 
SCCF RECON,ioos:station:SCCF:51:1,2010-08-10T07:00:00Z,26.5545,-82.1715,1.993,31.69,1111122 
SCCF RECON,ioos:station:SCCF:51:1,2010-08-10T08:00:00Z,26.5545,-82.1715,1.924,31.59,1111122 
SCCF RECON,ioos:station:SCCF:51:1,2010-08-10T09:00:00Z,26.5545,-82.1715,1.849,29.89,1111122 
SCCF RECON,ioos:station:SCCF:51:1,2010-08-10T10:00:00Z,26.5545,-82.1715,1.766,29.97,1111122 
SCCF RECON,ioos:station:SCCF:51:1,2010-08-10T11:00:00Z,26.5545,-82.1715,1.718,29.85,1111122 
SCCF RECON,ioos:station:SCCF:51:1,2010-08-10T12:00:00Z,26.5545,-82.1715,1.742,29.76,1111122 
SCCF RECON,ioos:station:SCCF:51:1,2010-08-10T13:00:00Z,26.5545,-82.1715,1.828,29.76,1111122 
SCCF RECON,ioos:station:SCCF:51:1,2010-08-10T14:00:00Z,26.5545,-82.1715,1.962,33.16,1111122 
SCCF RECON,ioos:station:SCCF:51:1,2010-08-10T15:00:00Z,26.5545,-82.1715,2.108,33.59,1111122 
SCCF RECON,ioos:station:SCCF:51:1,2010-08-10T16:00:00Z,26.5545,-82.1715,2.227,33.24,1111122 
SCCF RECON,ioos:station:SCCF:51:1,2010-08-10T17:00:00Z,26.5545,-82.1715,2.316,33.68,1111122 
SCCF RECON,ioos:station:SCCF:51:1,2010-08-10T18:00:00Z,26.5545,-82.1715,2.375,33.39,1111122 
SCCF RECON,ioos:station:SCCF:51:1,2010-08-10T19:00:00Z,26.5545,-82.1715,2.366,31.44,1111122 
SCCF RECON,ioos:station:SCCF:51:1,2010-08-10T20:00:00Z,26.5545,-82.1715,2.243,30.23,1111122 
SCCF RECON,ioos:station:SCCF:51:1,2010-08-10T21:00:00Z,26.5545,-82.1715,2.103,29.24,1111122 
SCCF RECON,ioos:station:SCCF:51:1,2010-08-10T22:00:00Z,26.5545,-82.1715,1.951,28.55,1111122 
SCCF RECON,ioos:station:SCCF:51:1,2010-08-10T23:00:00Z,26.5545,-82.1715,1.81,28.43,1111122 
SCCF RECON,ioos:station:SCCF:51:1,2010-08-11T00:00:00Z,26.5545,-82.1715,1.687,28.32,1111122 
SCCF RECON,ioos:station:SCCF:51:1,2010-08-11T01:00:00Z,26.5545,-82.1715,1.629,28.16,1111122 
SCCF RECON,ioos:station:SCCF:51:1,2010-08-11T02:00:00Z,26.5545,-82.1715,1.674,27.95,1111122 
SCCF RECON,ioos:station:SCCF:51:1,2010-08-11T03:00:00Z,26.5545,-82.1715,1.819,28.06,1111122 
SCCF RECON,ioos:station:SCCF:51:1,2010-08-11T04:00:00Z,26.5545,-82.1715,1.978,29.87,1111122 
SCCF RECON,ioos:station:SCCF:51:1,2010-08-11T05:00:00Z,26.5545,-82.1715,2.122,32.14,1111122 
SCCF RECON,ioos:station:SCCF:51:1,2010-08-11T06:00:00Z,26.5545,-82.1715,2.202,31.42,1111122 
SCCF RECON,ioos:station:SCCF:51:1,2010-08-11T07:00:00Z,26.5545,-82.1715,2.21,30.58,1111122 
SCCF RECON,ioos:station:SCCF:51:1,2010-08-11T08:00:00Z,26.5545,-82.1715,2.161,29.56,1111122 
SCCF RECON,ioos:station:SCCF:51:1,2010-08-11T09:00:00Z,26.5545,-82.1715,2.09,28.62,1111122 
SCCF RECON,ioos:station:SCCF:51:1,2010-08-11T10:00:00Z,26.5545,-82.1715,2.001,28.7,1111122 
SCCF RECON,ioos:station:SCCF:51:1,2010-08-11T11:00:00Z,26.5545,-82.1715,1.936,28.93,1111122 
SCCF RECON,ioos:station:SCCF:51:1,2010-08-11T12:00:00Z,26.5545,-82.1715,1.9,29.19,1111122 
SCCF RECON,ioos:station:SCCF:51:1,2010-08-11T13:00:00Z,26.5545,-82.1715,1.925,28.93,1111122 
SCCF RECON,ioos:station:SCCF:51:1,2010-08-11T14:00:00Z,26.5545,-82.1715,2.004,29.08,1111122 
SCCF RECON,ioos:station:SCCF:51:1,2010-08-11T15:00:00Z,26.5545,-82.1715,2.116,32.69,1111122 
SCCF RECON,ioos:station:SCCF:51:1,2010-08-11T16:00:00Z,26.5545,-82.1715,2.249,32.7,1111122 
SCCF RECON,ioos:station:SCCF:51:1,2010-08-11T17:00:00Z,26.5545,-82.1715,2.328,32.94,1111122 